This demonstration page uses our WeatherBlox Daily Observations layout. Learn more.

36.17497, -115.13722

Hourly Observations for September 18, 2018

Temp ( °F °C ) Dew Point ( °F °C ) Humidity (%) Winds ( mph kmh ) Pressure ( in mb ) Visibility ( mi km ) Precip ( " mm )
12:53 am 00:53 Clear 76 24.4 19 -7.2 12 12 NNW 5 7 29.77 1008 10 16.09344 0 0
1:53 am 01:53 Clear 74 23.3 20 -6.7 13 13 NE 3 6 29.77 1008 10 16.09344 0 0
2:53 am 02:53 Clear 72 22.2 21 -6.1 15 15 Calm 29.77 1008 10 16.09344 0 0
3:53 am 03:53 Clear 74 23.3 22 -5.6 14 14 W 5 7 29.77 1008 10 16.09344 0 0
4:53 am 04:53 Clear 72 22.2 20 -6.7 14 14 WNW 3 6 29.8 1009 10 16.09344 0 0
5:53 am 05:53 Clear 69 20.6 21 -6.1 16 16 N 3 6 29.8 1009 10 16.09344 0 0
6:53 am 06:53 Sunny 68 20 18 -7.8 15 15 N 6 9 29.83 1010 10 16.09344 0 0
7:53 am 07:53 Sunny 72 22.2 21 -6.1 15 15 NW 5 7 29.83 1010 10 16.09344 0 0
8:53 am 08:53 Sunny 79 26.1 21 -6.1 11 11 Calm 29.83 1010 10 16.09344 0 0
9:53 am 09:53 Sunny 82 27.8 19 -7.2 9 9 Calm 29.83 1010 10 16.09344 0 0
10:53 am 10:53 Sunny 89 31.7 19 -7.2 7 7 SSE 9 15 29.8 1009 10 16.09344 0 0
11:53 am 11:53 Sunny 95 35 9 -12.8 4 4 S 15 24 29.77 1008 10 16.09344 0 0
12:53 pm 12:53 Sunny 97 36.1 4 -15.6 3 3 SSE 21 33 29.77 1008 10 16.09344 0 0
1:53 pm 13:53 Sunny 97 36.1 5 -15 3 3 S 21 33 29.74 1007 10 16.09344 0 0
2:53 pm 14:53 Sunny 98 36.7 5 -15 3 3 S 17 28 29.71 1006 10 16.09344 0 0
3:53 pm 15:53 Sunny 98 36.7 5 -15 3 3 SSW 22 35 29.68 1005 10 16.09344 0 0
4:53 pm 16:53 Sunny 98 36.7 5 -15 3 3 SSW 20 31 29.68 1005 10 16.09344 0 0
5:53 pm 17:53 Sunny 96 35.6 4 -15.6 3 3 SSW 15 24 29.68 1005 10 16.09344 0 0
6:53 pm 18:53 Clear 93 33.9 4 -15.6 3 3 SW 16 26 29.68 1005 10 16.09344 0 0
7:53 pm 19:53 Clear 91 32.8 4 -15.6 4 4 WSW 12 19 29.68 1005 10 16.09344 0 0
8:53 pm 20:53 Clear 88 31.1 9 -12.8 5 5 S 8 13 29.68 1005 10 16.09344 0 0
9:53 pm 21:53 Clear 82 27.8 10 -12.2 6 6 S 10 17 29.71 1006 10 16.09344 0 0
10:53 pm 22:53 Clear 83 28.3 10 -12.2 6 6 WSW 9 15 29.71 1006 10 16.09344 0 0
11:53 pm 23:53 Clear 77 25 12 -11.1 8 8 NW 8 13 29.71 1006 10 16.09344 0 0

Powered by AerisWeather